Weather History for Siren, WI

Change the Weather History Date:

Friday, April 19, 2013

  Actual Average Record
Temperature  
Mean Temperature 25 °F -  
Max Temperature 33 °F - - ()
Min Temperature 17 °F - - ()
Degree Days  
Heating Degree Days 40    
Moisture  
Dew Point 24 °F    
Average Humidity 80    
Maximum Humidity 100    
Minimum Humidity 55    
Precipitation  
Precipitation 0.14 in - - ()
Sea Level Pressure  
Sea Level Pressure 29.63 in    
Wind  
Wind Speed 12 mph (North)    
Max Wind Speed 24 mph    
Max Gust Speed 31 mph    
Visibility 6 miles    
Events Snow    
T = Trace of Precipitation, MM = Missing Value Source: NWS Daily Summary

Daily Weather History Graph

Daily Weather History Graph

Search for Another Location

Airport:

Trip Planner

Search our weather history database for the weather conditions in past years. The results will help you decide how hot, cold, wet, or windy it might be!

Date:

Astronomy

Apr. 19, 2013 Rise Set
Actual Time 6:16 AM CDT 8:01 PM CDT
Civil Twilight 5:44 AM CDT 8:33 PM CDT
Nautical Twilight 5:05 AM CDT 9:12 PM CDT
Astronomical Twilight 4:24 AM CDT 9:54 PM CDT
Moon 1:28 PM CDT (4/19) 2:51 AM CDT (4/19)
Length of Visible Light 14h 49m
Length of Day
13h 45m
First Quarter, 62% of the Moon is Illuminated
Apr 19
First Quarter
Apr 25
Full
May 2
Last Quarter
May 9
New
May 17
First Quarter

Hourly Weather History & Observations

Time (CDT) Temp. Windchill Dew Point Humidity Pressure Visibility Wind Dir Wind Speed Gust Speed Precip Events Conditions
12:15 AM 32.0 °F 23.0 °F 30.2 °F 93% 29.43 in 1.0 mi North 11.5 mph - N/A Snow Snow
12:35 AM 32.0 °F 23.0 °F 30.2 °F 93% 29.43 in 0.8 mi North 11.5 mph - N/A Snow Snow
12:55 AM 32.0 °F 22.5 °F 30.2 °F 93% 29.42 in 1.2 mi North 12.7 mph - N/A Snow Light Snow
1:15 AM 32.0 °F 23.0 °F 30.2 °F 93% 29.43 in 1.2 mi North 11.5 mph 16.1 mph N/A Snow Light Snow
1:35 AM 32.0 °F 23.6 °F 30.2 °F 93% 29.42 in 1.5 mi North 10.4 mph 16.1 mph N/A Snow Light Snow
1:55 AM 32.0 °F 22.5 °F 30.2 °F 93% 29.42 in 1.2 mi North 12.7 mph - N/A Snow Snow
2:15 AM 30.2 °F 20.2 °F 30.2 °F 100% 29.42 in 1.8 mi North 12.7 mph 16.1 mph N/A Snow Light Snow
2:35 AM 32.0 °F 22.1 °F 30.2 °F 93% 29.41 in 2.5 mi North 13.8 mph - N/A Snow Light Snow
2:55 AM 30.2 °F 20.8 °F 30.2 °F 100% 29.41 in 2.0 mi North 11.5 mph 17.3 mph N/A Snow Light Snow
3:15 AM 30.2 °F 20.8 °F 30.2 °F 100% 29.42 in 2.0 mi North 11.5 mph 23.0 mph N/A Snow Light Snow
3:35 AM 30.2 °F 20.8 °F 28.4 °F 93% 29.42 in 2.0 mi North 11.5 mph 16.1 mph N/A Snow Light Snow
3:55 AM 30.2 °F 21.3 °F 28.4 °F 93% 29.42 in 2.0 mi North 10.4 mph 19.6 mph N/A Snow Light Snow
4:15 AM 30.2 °F 20.8 °F 28.4 °F 93% 29.42 in 1.8 mi North 11.5 mph 17.3 mph N/A Snow Light Snow
4:35 AM 30.2 °F 20.8 °F 28.4 °F 93% 29.43 in 2.0 mi North 11.5 mph 17.3 mph N/A Snow Light Snow
4:55 AM 30.2 °F 20.8 °F 28.4 °F 93% 29.43 in 3.0 mi North 11.5 mph 17.3 mph N/A Snow Light Snow
5:15 AM 30.2 °F 20.2 °F 28.4 °F 93% 29.44 in 3.0 mi North 12.7 mph 23.0 mph N/A Snow Light Snow
5:35 AM 30.2 °F 19.8 °F 28.4 °F 93% 29.44 in 4.0 mi North 13.8 mph 17.3 mph N/A Snow Light Snow
5:55 AM 30.2 °F 19.8 °F 26.6 °F 86% 29.45 in 7.0 mi NNE 13.8 mph 20.7 mph N/A   Overcast
6:15 AM 28.4 °F 19.1 °F 26.6 °F 93% 29.46 in 7.0 mi North 10.4 mph 19.6 mph N/A   Overcast
6:35 AM 28.4 °F 18.5 °F 26.6 °F 93% 29.46 in 5.0 mi North 11.5 mph 17.3 mph N/A   Overcast
6:55 AM 28.4 °F 19.1 °F 26.6 °F 93% 29.48 in 5.0 mi North 10.4 mph 16.1 mph N/A Snow Light Snow
7:15 AM 28.4 °F 19.1 °F 24.8 °F 86% 29.48 in 7.0 mi North 10.4 mph 18.4 mph N/A Snow Light Snow
7:35 AM 28.4 °F 19.7 °F 26.6 °F 93% 29.49 in 2.5 mi North 9.2 mph - N/A Snow Light Snow
7:55 AM 28.4 °F 20.4 °F 26.6 °F 93% 29.50 in 4.0 mi North 8.1 mph 16.1 mph N/A Snow Light Snow
8:15 AM 28.4 °F 18.5 °F 24.8 °F 86% 29.50 in 3.0 mi North 11.5 mph 19.6 mph N/A Snow Light Snow
8:35 AM 28.4 °F 18.5 °F 24.8 °F 86% 29.51 in 3.0 mi North 11.5 mph 17.3 mph N/A Snow Light Snow
8:55 AM 28.4 °F 18.5 °F 24.8 °F 86% 29.51 in 3.0 mi NNE 11.5 mph - N/A Snow Light Snow
9:15 AM 28.4 °F 17.5 °F 24.8 °F 86% 29.52 in 2.0 mi North 13.8 mph 23.0 mph N/A Snow Light Snow
9:35 AM 28.4 °F 18.0 °F 24.8 °F 86% 29.53 in 2.5 mi North 12.7 mph 17.3 mph N/A Snow Light Snow
9:55 AM 30.2 °F 20.2 °F 24.8 °F 80% 29.53 in 2.0 mi North 12.7 mph 21.9 mph N/A Snow Light Snow
10:15 AM 30.2 °F 19.3 °F 24.8 °F 80% 29.54 in 1.8 mi North 15.0 mph 20.7 mph N/A Snow Light Snow
10:35 AM 28.4 °F 18.0 °F 23.0 °F 80% 29.56 in 2.5 mi North 12.7 mph 21.9 mph N/A Snow Light Snow
10:55 AM 30.2 °F 20.2 °F 24.8 °F 80% 29.56 in - North 12.7 mph - N/A Snow Light Snow
11:15 AM 30.2 °F 21.9 °F 26.6 °F 86% 29.57 in 1.8 mi North 9.2 mph 17.3 mph 0.01 in Snow Light Snow
11:35 AM 30.2 °F 19.8 °F 26.6 °F 86% 29.58 in 1.2 mi North 13.8 mph 20.7 mph 0.02 in Snow Light Snow
11:55 AM 30.2 °F 18.9 °F 26.6 °F 86% 29.58 in 1.2 mi North 16.1 mph 24.2 mph 0.03 in Snow Light Snow
12:15 PM 30.2 °F 20.2 °F 26.6 °F 86% 29.59 in 1.5 mi North 12.7 mph 23.0 mph 0.01 in Snow Light Snow
12:35 PM 30.2 °F 19.3 °F 26.6 °F 86% 29.60 in 1.0 mi North 15.0 mph - 0.02 in Snow Light Snow
12:55 PM 32.0 °F 21.6 °F 26.6 °F 80% 29.61 in 2.5 mi NNE 15.0 mph 23.0 mph 0.03 in Snow Light Snow
1:15 PM 32.0 °F 22.1 °F 26.6 °F 80% 29.62 in 5.0 mi North 13.8 mph 24.2 mph 0.02 in Snow Light Snow
1:35 PM 32.0 °F 20.1 °F 26.6 °F 80% 29.62 in 7.0 mi North 19.6 mph 24.2 mph 0.03 in   Overcast
1:55 PM 32.0 °F 18.9 °F 24.8 °F 75% 29.64 in 5.0 mi North 24.2 mph 31.1 mph 0.04 in Snow Light Snow
2:15 PM 32.0 °F 20.8 °F 26.6 °F 80% 29.65 in 5.0 mi North 17.3 mph 24.2 mph 0.01 in Snow Light Snow
2:35 PM 32.0 °F 21.6 °F 23.0 °F 69% 29.66 in 10.0 mi North 15.0 mph 25.3 mph 0.02 in   Overcast
2:55 PM 32.0 °F 19.8 °F 23.0 °F 69% 29.68 in 5.0 mi North 20.7 mph 29.9 mph 0.02 in Snow Light Snow
3:15 PM 32.0 °F 20.5 °F 23.0 °F 69% 29.69 in 4.0 mi North 18.4 mph 28.8 mph 0.01 in Snow Light Snow
3:35 PM 32.0 °F 20.5 °F 23.0 °F 69% 29.70 in 4.0 mi North 18.4 mph 27.6 mph 0.01 in Snow Light Snow
3:55 PM 32.0 °F 21.2 °F 23.0 °F 69% 29.71 in 7.0 mi North 16.1 mph 24.2 mph 0.01 in Snow Light Snow
4:15 PM 32.0 °F 21.6 °F 21.2 °F 64% 29.72 in 10.0 mi North 15.0 mph 24.2 mph 0.01 in   Overcast
4:35 PM 32.0 °F 21.6 °F 23.0 °F 69% 29.73 in 10.0 mi NNE 15.0 mph 21.9 mph 0.01 in   Overcast
4:55 PM 32.0 °F 21.2 °F 21.2 °F 64% 29.75 in 10.0 mi NNE 16.1 mph 26.5 mph 0.01 in   Overcast
5:15 PM 32.0 °F 20.8 °F 23.0 °F 69% 29.76 in 7.0 mi North 17.3 mph 28.8 mph N/A Snow Light Snow
5:35 PM 33.8 °F 24.3 °F 19.4 °F 56% 29.77 in 10.0 mi NNE 13.8 mph 20.7 mph N/A   Scattered Clouds
5:55 PM 32.0 °F 20.5 °F 21.2 °F 64% 29.78 in 10.0 mi NNE 18.4 mph 25.3 mph N/A   Mostly Cloudy
6:15 PM 32.0 °F 20.8 °F 19.4 °F 60% 29.79 in 10.0 mi North 17.3 mph 21.9 mph N/A   Scattered Clouds
6:35 PM 32.0 °F 21.2 °F 21.2 °F 64% 29.81 in 10.0 mi North 16.1 mph 26.5 mph N/A   Mostly Cloudy
6:55 PM 32.0 °F 23.0 °F 19.4 °F 60% 29.81 in 10.0 mi NNE 11.5 mph 18.4 mph N/A   Scattered Clouds
7:15 PM 32.0 °F 23.6 °F 19.4 °F 60% 29.83 in 10.0 mi NNE 10.4 mph - N/A   Clear
7:35 PM 32.0 °F 24.2 °F 19.4 °F 60% 29.84 in 10.0 mi North 9.2 mph 17.3 mph N/A   Clear
7:55 PM 32.0 °F 26.4 °F 19.4 °F 60% 29.85 in 10.0 mi North 5.8 mph - N/A   Clear
8:15 PM 30.2 °F 25.4 °F 19.4 °F 64% 29.86 in 10.0 mi NNE 4.6 mph - N/A   Clear
8:35 PM 30.2 °F 25.4 °F 19.4 °F 64% 29.88 in 10.0 mi NNE 4.6 mph - N/A   Clear
8:55 PM 30.2 °F 25.4 °F 17.6 °F 60% 29.89 in 10.0 mi NNE 4.6 mph - N/A   Clear
9:15 PM 30.2 °F 24.3 °F 17.6 °F 60% 29.90 in 10.0 mi NNE 5.8 mph - N/A   Clear
9:35 PM 30.2 °F 24.3 °F 15.8 °F 55% 29.91 in 10.0 mi NNE 5.8 mph - N/A   Clear
9:55 PM 28.4 °F 24.6 °F 14.0 °F 55% 29.92 in 10.0 mi NNE 3.5 mph - N/A   Clear
10:15 PM 26.6 °F - 14.0 °F 59% 29.93 in 10.0 mi Calm Calm - N/A   Clear
10:35 PM 23.0 °F - 15.8 °F 74% 29.93 in 10.0 mi Calm Calm - N/A   Clear
10:55 PM 23.0 °F - 17.6 °F 80% 29.94 in 10.0 mi Calm Calm - N/A   Clear
11:15 PM 19.4 °F - 15.8 °F 86% 29.94 in 10.0 mi Calm Calm - N/A   Clear
11:35 PM 17.6 °F - 15.8 °F 93% 29.95 in 10.0 mi Calm Calm - N/A   Clear
11:55 PM 19.4 °F - 17.6 °F 93% 29.96 in 10.0 mi Calm Calm - N/A   Clear